FW9167 Weather Reports


Display with metric or nautical units.
time (UTC)temp
F
wind
direction
speed
MPH
gust
MPH
rain 1hr
in
rain 24hr
in
rain mn
in
humidity
%
barometer
mb
20260503003107 78 134 0.0 1.0 0.00 0.00 0.00 35 1014.2
20260503001602 77 153 0.0 1.0 0.00 0.00 0.00 34 1014.1
20260502234602 80 122 0.0 3.0 0.00 0.00 0.00 27 1014.3
20260502233102 79 146 0.0 5.0 0.00 0.00 0.00 30 1014.4
20260502231602 79 152 2.0 4.0 0.00 0.00 0.00 32 1014.5
20260502224603 79 145 0.0 3.0 0.00 0.00 0.00 28 1014.9
20260502223103 79 142 0.0 5.0 0.00 0.00 0.00 27 1015.2
20260502221602 79 116 0.0 5.0 0.00 0.00 0.00 26 1015.4
20260502214606 78 142 0.0 4.0 0.00 0.00 0.00 29 1015.8
20260502213102 77 110 2.0 7.0 0.00 0.00 0.00 29 1016.0
20260502211603 77 125 1.0 5.0 0.00 0.00 0.00 30 1016.2
20260502204606 76 162 0.0 4.0 0.00 0.00 0.00 26 1016.4
20260502203102 76 108 2.0 6.0 0.00 0.00 0.00 29 1016.5
20260502201603 76 113 0.0 5.0 0.00 0.00 0.00 25 1016.6
20260502200104 75 201 2.0 4.0 0.00 0.00 0.00 26 1016.8
20260502194602 75 197 2.0 5.0 0.00 0.00 0.00 29 1016.9
20260502193102 74 198 2.0 4.0 0.00 0.00 0.00 30 1017.0
20260502191604 73 142 2.0 5.0 0.00 0.00 0.00 33 1017.2
20260502190107 72 115 1.0 4.0 0.00 0.00 0.00 34 1017.3
20260502184601 72 112 1.0 3.0 0.00 0.00 0.00 39 1017.5
20260502181603 69 238 0.0 2.0 0.00 0.00 0.00 43 1017.8
20260502170103 64 131 0.0 2.0 0.00 0.00 0.00 52 1018.1
20260502163102 62 153 0.0 1.0 0.00 0.00 0.00 56 1018.1
20260502161602 61 70 0.0 1.0 0.00 0.00 0.00 55 1018.2
20260502151602 56 137 0.0 1.0 0.00 0.00 0.00 63 1018.4
20260502150104 54 158 0.0 0.0 0.00 0.00 0.00 68 1018.3
20260502130106 39 341 0.0 1.0 0.00 0.00 0.00 83 1018.1
20260502123101 41 275 0.0 1.0 0.00 0.00 0.00 81 1018.0
20260502121602 42 278 0.0 1.0 0.00 0.00 0.00 78 1018.1
20260502114603 45 334 0.0 1.0 0.00 0.00 0.00 75 1018.1
20260502113104 44 338 0.0 1.0 0.00 0.00 0.00 77 1018.1
20260502111607 42 334 0.0 1.0 0.00 0.00 0.00 81 1018.1
20260502104602 42 350 0.0 0.0 0.00 0.00 0.00 81 1018.3
20260502103103 41 24 0.0 1.0 0.00 0.00 0.00 81 1018.3
20260502090105 46 343 0.0 0.0 0.00 0.00 0.00 70 1018.1
20260502080103 48 36 0.0 0.0 0.00 0.00 0.00 66 1018.4
20260502063105 51 314 0.0 1.0 0.00 0.00 0.00 60 1018.4
20260502061602 50 336 0.0 1.0 0.00 0.00 0.00 63 1018.4
20260502054602 51 345 0.0 1.0 0.00 0.00 0.00 60 1018.4
20260502053102 52 318 0.0 0.0 0.00 0.00 0.00 60 1018.4
20260502050104 55 345 0.0 6.0 0.00 0.00 0.00 55 1018.3
20260502043103 55 341 1.0 3.0 0.00 0.00 0.00 56 1018.3
20260502041604 55 320 0.0 4.0 0.00 0.00 0.00 56 1018.1
20260502040106 55 327 1.0 4.0 0.00 0.00 0.00 57 1018.0
20260502034602 56 360 1.0 5.0 0.00 0.00 0.00 58 1018.0
20260502033105 56 330 2.0 5.0 0.00 0.00 0.00 59 1018.0
20260502024602 58 329 1.0 4.0 0.00 0.00 0.00 59 1017.8
20260502023103 60 342 0.0 4.0 0.00 0.00 0.00 57 1017.7
20260502021604 62 333 0.0 1.0 0.00 0.00 0.00 55 1017.6
20260502014604 69 250 0.0 1.0 0.00 0.00 0.00 46 1017.6
20260502013103 69 142 0.0 0.0 0.00 0.00 0.00 45 1017.8
20260502011603 70 142 0.0 2.0 0.00 0.00 0.00 44 1018.0
20260502010103 71 136 0.0 1.0 0.00 0.00 0.00 44 1018.0
20260502004602 71 129 0.0 2.0 0.00 0.00 0.00 40 1018.1